| time (UTC) | temp F | wind direction | speed MPH | gust MPH | rain 1hr in | rain 24hr in | rain mn in | humidity % | barometer mb |
| 20260505025028 | 66 | 180 | 0.0 | 0.0 | 0.00 | 0.00 | 0.00 | 75 | 1003.1 |
| 20260505024527 | 66 | 180 | 0.0 | 0.0 | 0.00 | 0.00 | 0.00 | 75 | 1003.0 |
| 20260505024027 | 67 | 180 | 0.0 | 0.0 | 0.00 | 0.00 | 0.00 | 74 | 1003.0 |
| 20260505023526 | 67 | 180 | 0.0 | 0.0 | 0.00 | 0.00 | 0.00 | 73 | 1002.9 |
| 20260505023011 | 67 | 180 | 0.0 | 0.0 | 0.00 | 0.00 | 0.00 | 73 | 1002.9 |
| 20260505022432 | 68 | 180 | 0.0 | 0.0 | 0.00 | 0.00 | 0.00 | 72 | 1002.8 |
| 20260505021931 | 68 | 180 | 0.0 | 0.0 | 0.00 | 0.00 | 0.00 | 70 | 1002.7 |
| 20260505021431 | 69 | 180 | 0.0 | 1.0 | 0.00 | 0.00 | 0.00 | 69 | 1002.7 |
| 20260505020931 | 69 | 180 | 0.0 | 2.0 | 0.00 | 0.00 | 0.00 | 68 | 1002.7 |
| 20260505020430 | 70 | 180 | 1.0 | 2.0 | 0.00 | 0.00 | 0.00 | 67 | 1002.5 |
| 20260505015930 | 70 | 180 | 1.0 | 2.0 | 0.00 | 0.00 | 0.00 | 68 | 1002.5 |
| 20260505015415 | 71 | 180 | 0.0 | 0.0 | 0.00 | 0.00 | 0.00 | 65 | 1002.4 |
| 20260505014907 | 72 | 180 | 0.0 | 0.0 | 0.00 | 0.00 | 0.00 | 64 | 1002.3 |
| 20260505014407 | 72 | 180 | 0.0 | 0.0 | 0.00 | 0.00 | 0.00 | 63 | 1002.2 |
| 20260505013907 | 73 | 180 | 0.0 | 0.0 | 0.00 | 0.00 | 0.00 | 62 | 1002.0 |
| 20260505013406 | 73 | 180 | 0.0 | 0.0 | 0.00 | 0.00 | 0.00 | 62 | 1002.0 |
| 20260505012906 | 74 | 180 | 0.0 | 0.0 | 0.00 | 0.00 | 0.00 | 59 | 1001.8 |
| 20260505012356 | 74 | 180 | 0.0 | 0.0 | 0.00 | 0.00 | 0.00 | 60 | 1001.9 |
| 20260505011848 | 75 | 180 | 0.0 | 0.0 | 0.00 | 0.00 | 0.00 | 58 | 1001.8 |
| 20260505011346 | 75 | 180 | 0.0 | 0.0 | 0.00 | 0.00 | 0.00 | 57 | 1001.7 |
| 20260505010846 | 76 | 180 | 0.0 | 0.0 | 0.00 | 0.00 | 0.00 | 56 | 1001.6 |
| 20260505010345 | 76 | 180 | 0.0 | 0.0 | 0.00 | 0.00 | 0.00 | 56 | 1001.7 |
| 20260505005845 | 77 | 180 | 0.0 | 0.0 | 0.00 | 0.00 | 0.00 | 55 | 1001.6 |
| 20260505005323 | 77 | 180 | 0.0 | 0.0 | 0.00 | 0.00 | 0.00 | 54 | 1001.6 |
| 20260505004802 | 78 | 180 | 0.0 | 0.0 | 0.00 | 0.00 | 0.00 | 54 | 1001.5 |
| 20260505003738 | 78 | 180 | 0.0 | 0.0 | 0.00 | 0.00 | 0.00 | 54 | 1001.5 |
| 20260505003217 | 78 | 180 | 0.0 | 3.0 | 0.00 | 0.00 | 0.00 | 53 | 1001.5 |
| 20260505002716 | 79 | 180 | 0.0 | 4.0 | 0.00 | 0.00 | 0.00 | 53 | 1001.5 |
| 20260505002216 | 79 | 180 | 1.0 | 4.0 | 0.00 | 0.00 | 0.00 | 52 | 1001.4 |
| 20260505001715 | 79 | 186 | 1.0 | 4.0 | 0.00 | 0.00 | 0.00 | 53 | 1001.5 |
| 20260505001215 | 79 | 187 | 1.0 | 5.0 | 0.00 | 0.00 | 0.00 | 52 | 1001.6 |
| 20260505000715 | 80 | 210 | 1.0 | 5.0 | 0.00 | 0.00 | 0.00 | 50 | 1001.6 |
| 20260505000214 | 80 | 205 | 2.0 | 4.0 | 0.00 | 0.00 | 0.00 | 50 | 1001.6 |
| 20260504235713 | 80 | 205 | 1.0 | 6.0 | 0.00 | 0.00 | 0.00 | 50 | 1001.7 |
| 20260504235213 | 80 | 205 | 3.0 | 5.0 | 0.00 | 0.00 | 0.00 | 50 | 1001.8 |
| 20260504234713 | 80 | 211 | 3.0 | 5.0 | 0.00 | 0.00 | 0.00 | 47 | 1001.7 |
| 20260504234212 | 80 | 183 | 2.0 | 6.0 | 0.00 | 0.00 | 0.00 | 47 | 1001.6 |
| 20260504233711 | 80 | 206 | 1.0 | 6.0 | 0.00 | 0.00 | 0.00 | 46 | 1001.7 |
| 20260504233149 | 80 | 207 | 2.0 | 6.0 | 0.00 | 0.00 | 0.00 | 45 | 1001.7 |
| 20260504232649 | 81 | 202 | 2.0 | 7.0 | 0.00 | 0.00 | 0.00 | 45 | 1001.7 |
| 20260504232128 | 81 | 225 | 2.0 | 7.0 | 0.00 | 0.00 | 0.00 | 45 | 1001.6 |
| 20260504231627 | 81 | 187 | 5.0 | 9.0 | 0.00 | 0.00 | 0.00 | 45 | 1001.7 |
| 20260504231106 | 81 | 209 | 2.0 | 9.0 | 0.00 | 0.00 | 0.00 | 44 | 1001.7 |
| 20260504230606 | 81 | 199 | 4.0 | 7.0 | 0.00 | 0.00 | 0.00 | 45 | 1001.7 |
| 20260504230045 | 81 | 205 | 4.0 | 8.0 | 0.00 | 0.00 | 0.00 | 45 | 1001.8 |
| 20260504225523 | 81 | 220 | 4.0 | 9.0 | 0.00 | 0.00 | 0.00 | 45 | 1001.7 |
| 20260504225022 | 82 | 206 | 5.0 | 9.0 | 0.00 | 0.00 | 0.00 | 45 | 1001.6 |
| 20260504224521 | 82 | 219 | 3.0 | 8.0 | 0.00 | 0.00 | 0.00 | 46 | 1001.7 |
| 20260504224021 | 82 | 194 | 5.0 | 8.0 | 0.00 | 0.00 | 0.00 | 44 | 1001.6 |
| 20260504223452 | 82 | 209 | 2.0 | 10.0 | 0.00 | 0.00 | 0.00 | 43 | 1001.7 |
| 20260504222951 | 83 | 207 | 3.0 | 10.0 | 0.00 | 0.00 | 0.00 | 42 | 1001.7 |
| 20260504222450 | 83 | 216 | 3.0 | 9.0 | 0.00 | 0.00 | 0.00 | 44 | 1001.7 |
| 20260504221929 | 83 | 190 | 5.0 | 9.0 | 0.00 | 0.00 | 0.00 | 44 | 1001.6 |
| 20260504221428 | 83 | 222 | 6.0 | 9.0 | 0.00 | 0.00 | 0.00 | 44 | 1001.7 |
| 20260504220928 | 82 | 198 | 4.0 | 9.0 | 0.00 | 0.00 | 0.00 | 44 | 1001.8 |
| 20260504220428 | 82 | 193 | 4.0 | 10.0 | 0.00 | 0.00 | 0.00 | 45 | 1001.7 |
| 20260504215927 | 82 | 183 | 6.0 | 11.0 | 0.00 | 0.00 | 0.00 | 43 | 1001.7 |
| 20260504215427 | 82 | 225 | 5.0 | 10.0 | 0.00 | 0.00 | 0.00 | 44 | 1001.7 |
| 20260504214927 | 82 | 215 | 5.0 | 10.0 | 0.00 | 0.00 | 0.00 | 43 | 1001.7 |
| 20260504214406 | 82 | 230 | 4.0 | 8.0 | 0.00 | 0.00 | 0.00 | 43 | 1001.7 |
| 20260504213905 | 82 | 190 | 5.0 | 10.0 | 0.00 | 0.00 | 0.00 | 43 | 1001.7 |
| 20260504213405 | 83 | 250 | 5.0 | 10.0 | 0.00 | 0.00 | 0.00 | 41 | 1001.8 |
| 20260504212904 | 83 | 231 | 6.0 | 10.0 | 0.00 | 0.00 | 0.00 | 42 | 1001.9 |
| 20260504212403 | 83 | 221 | 6.0 | 10.0 | 0.00 | 0.00 | 0.00 | 42 | 1001.9 |
| 20260504211903 | 83 | 252 | 5.0 | 10.0 | 0.00 | 0.00 | 0.00 | 41 | 1001.7 |
| 20260504211403 | 83 | 213 | 5.0 | 10.0 | 0.00 | 0.00 | 0.00 | 41 | 1001.8 |
| 20260504210841 | 83 | 235 | 6.0 | 10.0 | 0.00 | 0.00 | 0.00 | 42 | 1001.8 |
| 20260504210320 | 84 | 237 | 4.0 | 10.0 | 0.00 | 0.00 | 0.00 | 40 | 1001.9 |
| 20260504205820 | 84 | 219 | 6.0 | 10.0 | 0.00 | 0.00 | 0.00 | 41 | 1002.0 |
| 20260504205258 | 84 | 207 | 5.0 | 11.0 | 0.00 | 0.00 | 0.00 | 41 | 1002.1 |
| 20260504204757 | 84 | 205 | 3.0 | 11.0 | 0.00 | 0.00 | 0.00 | 42 | 1002.2 |
| 20260504204257 | 84 | 223 | 8.0 | 10.0 | 0.00 | 0.00 | 0.00 | 41 | 1002.2 |
| 20260504203757 | 84 | 198 | 3.0 | 9.0 | 0.00 | 0.00 | 0.00 | 41 | 1002.3 |
| 20260504203256 | 84 | 220 | 7.0 | 9.0 | 0.00 | 0.00 | 0.00 | 42 | 1002.5 |
| 20260504202756 | 84 | 163 | 4.0 | 10.0 | 0.00 | 0.00 | 0.00 | 45 | 1002.5 |
| 20260504202234 | 84 | 241 | 2.0 | 11.0 | 0.00 | 0.00 | 0.00 | 43 | 1002.6 |
| 20260504201733 | 84 | 152 | 7.0 | 11.0 | 0.00 | 0.00 | 0.00 | 44 | 1002.6 |
| 20260504201233 | 83 | 205 | 4.0 | 11.0 | 0.00 | 0.00 | 0.00 | 43 | 1002.6 |
| 20260504200732 | 83 | 263 | 6.0 | 11.0 | 0.00 | 0.00 | 0.00 | 41 | 1002.5 |
| 20260504200232 | 83 | 242 | 7.0 | 9.0 | 0.00 | 0.00 | 0.00 | 43 | 1002.6 |
| 20260504195731 | 83 | 236 | 4.0 | 8.0 | 0.00 | 0.00 | 0.00 | 48 | 1002.5 |
| 20260504195230 | 83 | 214 | 5.0 | 14.0 | 0.00 | 0.00 | 0.00 | 45 | 1002.5 |
| 20260504194729 | 83 | 225 | 7.0 | 14.0 | 0.00 | 0.00 | 0.00 | 44 | 1002.6 |
| 20260504194229 | 83 | 223 | 8.0 | 14.0 | 0.00 | 0.00 | 0.00 | 43 | 1002.5 |
| 20260504193729 | 83 | 225 | 5.0 | 14.0 | 0.00 | 0.00 | 0.00 | 44 | 1002.5 |
| 20260504193229 | 82 | 150 | 6.0 | 13.0 | 0.00 | 0.00 | 0.00 | 44 | 1002.6 |
| 20260504192728 | 82 | 206 | 4.0 | 15.0 | 0.00 | 0.00 | 0.00 | 45 | 1002.5 |
| 20260504192228 | 82 | 256 | 11.0 | 15.0 | 0.00 | 0.00 | 0.00 | 47 | 1002.5 |
| 20260504191727 | 82 | 226 | 3.0 | 11.0 | 0.00 | 0.00 | 0.00 | 48 | 1002.5 |
| 20260504191227 | 81 | 168 | 6.0 | 11.0 | 0.00 | 0.00 | 0.00 | 47 | 1002.5 |
| 20260504190726 | 81 | 213 | 6.0 | 11.0 | 0.00 | 0.00 | 0.00 | 47 | 1002.6 |
| 20260504190226 | 81 | 167 | 7.0 | 12.0 | 0.00 | 0.00 | 0.00 | 48 | 1002.6 |
| 20260504185726 | 81 | 206 | 7.0 | 11.0 | 0.00 | 0.00 | 0.00 | 48 | 1002.6 |
| 20260504185225 | 80 | 244 | 5.0 | 13.0 | 0.00 | 0.00 | 0.00 | 48 | 1002.6 |
| 20260504184724 | 80 | 263 | 9.0 | 13.0 | 0.00 | 0.00 | 0.00 | 48 | 1002.6 |
| 20260504184203 | 80 | 188 | 7.0 | 11.0 | 0.00 | 0.00 | 0.00 | 50 | 1002.7 |
| 20260504183702 | 80 | 182 | 5.0 | 14.0 | 0.00 | 0.00 | 0.00 | 50 | 1002.6 |
| 20260504183202 | 80 | 219 | 7.0 | 14.0 | 0.00 | 0.00 | 0.00 | 48 | 1002.7 |
| 20260504182700 | 79 | 207 | 3.0 | 11.0 | 0.00 | 0.00 | 0.00 | 49 | 1002.7 |
| 20260504182159 | 79 | 219 | 6.0 | 11.0 | 0.00 | 0.00 | 0.00 | 49 | 1002.7 |
| 20260504181659 | 79 | 200 | 8.0 | 11.0 | 0.00 | 0.00 | 0.00 | 51 | 1002.7 |
| 20260504181159 | 78 | 196 | 6.0 | 10.0 | 0.00 | 0.00 | 0.00 | 53 | 1002.8 |
| 20260504180658 | 78 | 205 | 6.0 | 15.0 | 0.00 | 0.00 | 0.00 | 51 | 1002.8 |
| 20260504180158 | 78 | 255 | 7.0 | 15.0 | 0.00 | 0.00 | 0.00 | 49 | 1002.9 |
| 20260504175657 | 78 | 254 | 7.0 | 15.0 | 0.00 | 0.00 | 0.00 | 49 | 1003.0 |
| 20260504175157 | 77 | 261 | 6.0 | 15.0 | 0.00 | 0.00 | 0.00 | 49 | 1003.1 |
| 20260504174656 | 77 | 210 | 7.0 | 11.0 | 0.00 | 0.00 | 0.00 | 52 | 1003.0 |
| 20260504174156 | 77 | 219 | 6.0 | 14.0 | 0.00 | 0.00 | 0.00 | 54 | 1003.0 |
| 20260504173655 | 76 | 227 | 5.0 | 14.0 | 0.00 | 0.00 | 0.00 | 53 | 1003.2 |
| 20260504173133 | 76 | 241 | 7.0 | 13.0 | 0.00 | 0.00 | 0.00 | 52 | 1003.0 |
| 20260504172633 | 76 | 227 | 9.0 | 13.0 | 0.00 | 0.00 | 0.00 | 53 | 1003.1 |
| 20260504172133 | 76 | 217 | 6.0 | 13.0 | 0.00 | 0.00 | 0.00 | 56 | 1003.2 |
| 20260504171633 | 75 | 168 | 6.0 | 12.0 | 0.00 | 0.00 | 0.00 | 56 | 1003.3 |
| 20260504171132 | 75 | 157 | 5.0 | 12.0 | 0.00 | 0.00 | 0.00 | 56 | 1003.2 |
| 20260504170611 | 74 | 244 | 9.0 | 13.0 | 0.00 | 0.00 | 0.00 | 56 | 1003.3 |
| 20260504170110 | 74 | 220 | 8.0 | 19.0 | 0.00 | 0.00 | 0.00 | 57 | 1003.3 |
| 20260504150936 | 70 | 180 | 6.0 | 13.0 | 0.00 | 0.00 | 0.00 | 61 | 1003.8 |
| 20260504150415 | 69 | 221 | 8.0 | 13.0 | 0.00 | 0.00 | 0.00 | 61 | 1003.8 |
| 20260504141226 | 67 | 194 | 7.0 | 13.0 | 0.00 | 0.00 | 0.00 | 62 | 1003.9 |
| 20260504140705 | 67 | 161 | 6.0 | 19.0 | 0.00 | 0.00 | 0.00 | 64 | 1004.0 |
| 20260504140204 | 67 | 193 | 5.0 | 19.0 | 0.00 | 0.00 | 0.00 | 64 | 1004.0 |
| 20260504130616 | 61 | 194 | 4.0 | 9.0 | 0.00 | 0.00 | 0.00 | 76 | 1003.8 |
| 20260504130116 | 60 | 198 | 5.0 | 11.0 | 0.00 | 0.00 | 0.00 | 77 | 1003.7 |
| 20260504120110 | 53 | 230 | 0.0 | 0.0 | 0.00 | 0.00 | 0.00 | 88 | 1003.8 |
| 20260504110523 | 52 | 233 | 0.0 | 0.0 | 0.00 | 0.00 | 0.00 | 88 | 1003.8 |
| 20260504100436 | 53 | 235 | 0.0 | 0.0 | 0.00 | 0.00 | 0.00 | 84 | 1004.8 |
| 20260504081845 | 57 | 235 | 0.0 | 0.0 | 0.00 | 0.00 | 0.00 | 80 | 1005.3 |
| 20260504081344 | 57 | 235 | 0.0 | 0.0 | 0.00 | 0.00 | 0.00 | 78 | 1005.4 |
| 20260504080844 | 57 | 235 | 0.0 | 0.0 | 0.00 | 0.00 | 0.00 | 76 | 1005.4 |
| 20260504080344 | 57 | 235 | 0.0 | 0.0 | 0.00 | 0.00 | 0.00 | 76 | 1005.4 |
| 20260504070257 | 59 | 235 | 0.0 | 0.0 | 0.00 | 0.00 | 0.00 | 72 | 1006.2 |
| 20260504060229 | 62 | 244 | 0.0 | 0.0 | 0.00 | 0.00 | 0.00 | 70 | 1006.7 |
| 20260504050606 | 64 | 17 | 0.0 | 0.0 | 0.00 | 0.00 | 0.00 | 68 | 1007.3 |
| 20260504050105 | 64 | 15 | 0.0 | 0.0 | 0.00 | 0.00 | 0.00 | 66 | 1007.4 |
| 20260504045605 | 64 | 15 | 0.0 | 0.0 | 0.00 | 0.00 | 0.00 | 67 | 1007.6 |
| 20260504045104 | 64 | 15 | 0.0 | 0.0 | 0.00 | 0.00 | 0.00 | 67 | 1007.7 |
| 20260504044604 | 64 | 15 | 0.0 | 3.0 | 0.00 | 0.00 | 0.00 | 67 | 1007.6 |
| 20260504044103 | 64 | 15 | 1.0 | 8.0 | 0.00 | 0.00 | 0.00 | 68 | 1007.7 |
| 20260504043603 | 63 | 15 | 4.0 | 9.0 | 0.00 | 0.00 | 0.00 | 69 | 1008.0 |
| 20260504043102 | 63 | 340 | 7.0 | 8.0 | 0.00 | 0.00 | 0.00 | 73 | 1008.2 |
| 20260504042541 | 62 | 17 | 0.0 | 4.0 | 0.00 | 0.00 | 0.00 | 75 | 1008.1 |
| 20260504042040 | 62 | 17 | 1.0 | 4.0 | 0.00 | 0.00 | 0.00 | 73 | 1007.9 |
| 20260504041540 | 62 | 335 | 0.0 | 2.0 | 0.00 | 0.00 | 0.00 | 76 | 1007.9 |
| 20260504041039 | 62 | 335 | 0.0 | 2.0 | 0.00 | 0.00 | 0.00 | 75 | 1008.0 |
| 20260504040539 | 61 | 335 | 1.0 | 3.0 | 0.00 | 0.00 | 0.00 | 74 | 1007.9 |
| 20260504040038 | 61 | 335 | 1.0 | 3.0 | 0.00 | 0.00 | 0.00 | 76 | 1008.0 |
| 20260504035538 | 61 | 335 | 2.0 | 3.0 | 0.00 | 0.00 | 0.00 | 77 | 1007.9 |
| 20260504035038 | 61 | 335 | 0.0 | 4.0 | 0.00 | 0.00 | 0.00 | 78 | 1007.9 |
| 20260504034517 | 61 | 335 | 0.0 | 4.0 | 0.00 | 0.00 | 0.00 | 79 | 1007.9 |
| 20260504033955 | 61 | 335 | 0.0 | 0.0 | 0.00 | 0.00 | 0.00 | 78 | 1007.8 |
| 20260504033455 | 61 | 335 | 0.0 | 0.0 | 0.00 | 0.00 | 0.00 | 78 | 1007.9 |
| 20260504032954 | 62 | 335 | 0.0 | 0.0 | 0.00 | 0.00 | 0.00 | 78 | 1008.0 |
| 20260504032433 | 62 | 335 | 0.0 | 0.0 | 0.00 | 0.00 | 0.00 | 78 | 1008.0 |
| 20260504031932 | 62 | 335 | 0.0 | 0.0 | 0.00 | 0.00 | 0.00 | 77 | 1008.0 |
| 20260504031432 | 62 | 335 | 0.0 | 0.0 | 0.00 | 0.00 | 0.00 | 73 | 1008.0 |
| 20260504030931 | 62 | 335 | 0.0 | 0.0 | 0.00 | 0.00 | 0.00 | 72 | 1007.9 |
| 20260504030409 | 62 | 335 | 0.0 | 0.0 | 0.00 | 0.00 | 0.00 | 72 | 1008.0 |
| 20260504025909 | 63 | 335 | 0.0 | 0.0 | 0.00 | 0.00 | 0.00 | 73 | 1007.8 |
| 20260504025408 | 63 | 335 | 0.0 | 0.0 | 0.00 | 0.00 | 0.00 | 72 | 1007.9 |